Regional Weather Roundup
Issued by NWS Charleston, SC

Current Version | Previous Version | Graphics & Text | Print | Product List | Glossary On
Versions: 1 2 3 4 5 6 7 8 9 10 11 12 13 14 15 16 17 18 19 20 21 22 23 24 25 26 27 28 29 30 31 32 33 34 35 36 37 38 39 40 41 42 43 44 45 46 47 48 49 50
000
ASUS42 KCHS 221012
RWRCHS

REGIONAL WEATHER ROUNDUP
NATIONAL WEATHER SERVICE CHARLESTON SC
600 AM EDT FRI MAY 22 2015

NOTE: "FAIR" INDICATES FEW OR NO CLOUDS BELOW 12,000 FEET WITH NO
SIGNIFICANT WEATHER AND/OR OBSTRUCTIONS TO VISIBILITY.

NOT ALL STATIONS ARE QUALITY CONTROLLED BY THE NATIONAL
WEATHER SERVICE. USE DATA WITH CAUTION...ESPECIALLY
DEWPOINT OBSERVATIONS.

SCZ027-030-031-034>040-042>050-221100-
...SOUTHEAST SOUTH CAROLINA...

CITY           SKY/WX    TMP DP  RH WIND       PRES   REMARKS
N CHARLESTON   PTCLDY    68  59  73 NE16      30.02R
WATERFRONT PAR   N/A     71  64  78 NE15      29.97R
MOUNT PLEASANT LGT RAIN  68  61  77 N6        30.02R
JOHNS ISLAND   CLOUDY    70  63  78 NE15G22   30.01R
PINOPOLIS        N/A     70  63  78 NE15      29.93R
MONCKS CORNER  CLOUDY    68  59  73 NE6       30.03R
SUMMERVILLE    PTSUNNY   68  61  77 NE7       30.03R
BEAUFORT MCAS  PTCLDY    67  58  72 NW7       30.02R
BEAUFORT ARPT  FAIR      68  59  73 NW10      30.01R
HILTON HEAD IS NOT AVBL
WALTERBORO     CLOUDY    64  59  82 NE6       30.03R
ALLENDALE      PTSUNNY   64  55  72 CALM      30.03R

...SOUTHERN MIDLANDS AND PEE DEE...

CITY           SKY/WX    TMP DP  RH WIND       PRES   REMARKS
GEORGETOWN     NOT AVBL
KINGSTREE      NOT AVBL
ORANGEBURG     CLOUDY    68  59  73 E8        30.04R
BARNWELL       CLOUDY    64  54  68 NW5       30.05R
AIKEN          CLOUDY    61  46  59 N9        30.08R
MANNING        PTSUNNY   64  50  59 NE10G16   30.05R
COLUMBIA       CLOUDY    68  47  46 NE12      30.05R
SUMTER         CLOUDY    66  54  65 NE14      30.05R
FLORENCE       CLOUDY    65  53  65 NE15G21   30.07R
MYRTLE BEACH   CLOUDY    64  54  68 N12       30.06R
N MYRTLE BEACH CLOUDY    64  55  72 N9        30.04R

$$

GAZ063-065-086>088-099>101-113>116-118-119-134>141-150-221100-
...SOUTHEAST GEORGIA...

CITY           SKY/WX    TMP DP  RH WIND       PRES   REMARKS
SAVANNAH ARPT  PTCLDY    66  56  70 NW7       30.03R
HUNTER AAF     CLEAR     67  58  71 NW8       30.00R
FORT STEWART   PTCLDY    65  56  70 N8        30.02R
STATESBORO     PTCLDY    60  55  81 NW8       30.05R
SYLVANIA       MOSUNNY   62  56  81 NW7       30.06R
CLAXTON        FAIR      63  54  72 NW5       30.05R

...CSRA...CENTRAL AND FAR SOUTHEAST GEORGIA...

CITY           SKY/WX    TMP DP  RH WIND       PRES   REMARKS
THOMSON        MOCLDY    56  53  91 NW3       30.12R
AUGUSTA-BUSH   MOCLDY    61  51  70 NW7       30.05R
AUGUSTA-DANIEL MOCLDY    62  50  64 NW6       30.06R
SWAINSBORO     FAIR      61  54  77 N3        30.07R
VIDALIA        MOCLDY    61  52  72 N6        30.06R
EASTMAN        FAIR      59  53  79 CALM      30.10R
HAZLEHURST     FAIR      63  56  76 N7        30.05R
ALMA           MOCLDY    64  55  72 N5        30.05R
WAYCROSS       PTCLDY    66  61  84 N8        30.05R
JESUP          FAIR      70  61  73 N7        30.04R
BAXLEY         FAIR      64  55  72 N8        30.04R
BRUNSWICK      CLEAR     66  61  82 CALM      30.03R
SAINT SIMONS   NOT AVBL

$$

SCZ027-028-034-036>038-045-046-048>050-GAZ119-141-221100-
...LAKE AND SUPPLEMENTAL COASTAL OBSERVATIONS...

STATION/POSITION TIME  TEMP    WIND        PRES    WAVE   SWELL
                       AIR SEA DIR/SP/G            HT/PER HT/PER/DIR
                 (UTC) (F)     (DEG/KT/KT) (MB)    (FT/S) (FT/S/D)
UPR LAKE MARION  NOT AVBL
WINYAH BAY       NOT AVBL
LAKE MURRAY      0900   65      10/  2/  9 1016.6R
ACE BASIN NERRS  NOT AVBL
FORT PULASKI     0900   69 79  300/  8/ 10 1016.3R
SAPELO ISLAND    0900   71     310/  6     1016.0R

$$

ANZ835-935-AMZ111-154-330-350-352-354-370-450-454-472-221100-
...C-MAN AND BUOY OBSERVATIONS...

STATION/POSITION TIME  TEMP    WIND        PRES    WAVE   SWELL
                       AIR SEA DIR/SP/G            HT/PER HT/PER/DIR
                 (UTC) (F)     (DEG/KT/KT) (MB)    (FT/S) (FT/S/D)
BUOY 41004       0950   72 76   40/ 23/ 27 1014.3R   5/ 4   2/ 8
BUOY 41008       0950   74 77  340/ 16/ 17 1016.1R   2/ 4
FOLLY BEACH CMAN 1000   71      40/ 23/ 26 1016.4R
CAPERS NEARSHORE 0908   72      50/ 21/ 27 1015.9R
FRIPP NEARSHORE  0900   73     330/ 14/ 17 1015.1R


STATION/POSITION TIME  TEMP    WIND        PRES    WAVE   SWELL
                       AIR SEA DIR/SP/G            HT/PER HT/PER/DIR
                 (UTC) (F)     (DEG/KT/KT) (MB)    (FT/S) (FT/S/D)
5E ST. MARYS GA  0921      77                N/A     2/ 2
FRYING PAN BUOY  0950   69 74   30/ 19/ 23 1016.3R   4/ 4   2/100/ 8
BUOY 41025       0950   64 76  330/ 17/ 19 1015.8R   4/ 7   2/ 70/11
CAPE LOOKOUT NC  1000   60     350/ 14/ 16 1016.6R
BUOY 41002       0950   75 74  240/ 10/ 12 1015.0R   4/ 6   3/240/ 6
BUOY 41010       0920   80 79  220/ 14/ 16 1015.7R
ST AUGUSTINE FL  1000   72 73  330/  6/  8 1017.2R


$$


USA.gov is the U.S. government's official web portal to all federal, state and local government web resources and services.